Atka, AK

8:09 AM HST on December 02, 2016 (GMT -1000)
Atka

Weather History for PAAK - January, 2013

Change the Weather History Date:

Thursday, January 31, 2013

  Actual Average (PADK) Record (PADK)
Temperature  
Mean Temperature 30 °F -  
Max Temperature 35 °F 36 °F 47 °F (1985)
Min Temperature 24 °F 27 °F -4 °F (2004)
Degree Days  
Heating Degree Days 36    
Moisture  
Dew Point 22 °F    
Average Humidity 68    
Maximum Humidity 81    
Minimum Humidity 60    
Precipitation  
Precipitation 0.00 in - - ()
Sea Level Pressure  
Sea Level Pressure 29.76 in    
Wind  
Wind Speed 4 mph (NNE)    
Max Wind Speed 18 mph    
Max Gust Speed 24 mph    
Visibility 10 miles    
Events      
Averages and records for this station are not official NWS values.
T = Trace of Precipitation, MM = Missing Value Source: NWS Daily Summary

Daily Weather History Graph

Daily Weather History Graph

Search for Another Location

Airport or City:

Trip Planner

Search our weather history database for the weather conditions in past years. The results will help you decide how hot, cold, wet, or windy it might be!

Date:

Astronomy

Jan. 31, 2013 Rise Set
Actual Time 9:18 AM HST 6:23 PM HST
Civil Twilight 8:41 AM HST 7:00 PM HST
Nautical Twilight 8:00 AM HST 7:41 PM HST
Astronomical Twilight 7:20 AM HST 8:20 PM HST
Moon No Moon Rise 10:41 AM HST (1/31)
Length of Visible Light 10h 19m
Length of Day
9h 05m
Waning Gibbous, 78% of the Moon is Illuminated
Jan 31
Waning Gibbous
Feb 3
Last Quarter
Feb 9
New
Feb 17
First Quarter
Feb 25
Full

Hourly Weather History & Observations

Time (HST) Temp. Windchill Dew Point Humidity Pressure Visibility Wind Dir Wind Speed Gust Speed Precip Events Conditions
12:16 AM 26.6 °F 22.6 °F 19.4 °F 74% 29.73 in 10.0 mi NNW 3.5 mph - N/A   Partly Cloudy
12:36 AM 26.6 °F - 17.6 °F 69% 29.73 in 10.0 mi Calm Calm - N/A   Clear
12:56 AM 26.6 °F - 19.4 °F 74% 29.74 in 10.0 mi Calm Calm - N/A   Scattered Clouds
1:16 AM 26.6 °F 22.6 °F 19.4 °F 74% 29.74 in 10.0 mi NW 3.5 mph - N/A   Partly Cloudy
1:36 AM 28.4 °F 24.6 °F 19.4 °F 69% 29.74 in 10.0 mi North 3.5 mph - N/A   Mostly Cloudy
1:56 AM 28.4 °F - 17.6 °F 64% 29.74 in 10.0 mi Calm Calm - N/A   Mostly Cloudy
2:16 AM 28.4 °F - 17.6 °F 64% 29.74 in 10.0 mi Calm Calm - N/A   Partly Cloudy
2:36 AM 26.6 °F 21.2 °F 17.6 °F 69% 29.75 in 10.0 mi North 4.6 mph - N/A   Partly Cloudy
2:56 AM 28.4 °F 24.6 °F 19.4 °F 69% 29.75 in 10.0 mi West 3.5 mph - N/A   Partly Cloudy
3:16 AM 30.2 °F 24.3 °F 17.6 °F 60% 29.76 in 10.0 mi WNW 5.8 mph - N/A   Mostly Cloudy
3:36 AM 28.4 °F - 17.6 °F 64% 29.77 in 10.0 mi Calm Calm - N/A   Mostly Cloudy
3:56 AM 28.4 °F - 17.6 °F 64% 29.77 in 10.0 mi Calm Calm - N/A   Mostly Cloudy
4:16 AM 28.4 °F - 17.6 °F 64% 29.77 in 10.0 mi Calm Calm - N/A   Mostly Cloudy
4:36 AM 26.6 °F - 17.6 °F 69% 29.77 in 10.0 mi Calm Calm - N/A   Partly Cloudy
4:56 AM 24.8 °F 19.1 °F 15.8 °F 69% 29.77 in 10.0 mi NNW 4.6 mph - N/A   Clear
5:16 AM 26.6 °F 21.2 °F 17.6 °F 69% 29.78 in 10.0 mi North 4.6 mph - N/A   Clear
5:36 AM 26.6 °F 21.2 °F 17.6 °F 69% 29.78 in 10.0 mi NNW 4.6 mph - N/A   Mostly Cloudy
5:56 AM 24.8 °F 19.1 °F 15.8 °F 69% 29.78 in 10.0 mi North 4.6 mph - N/A   Overcast
6:16 AM 26.6 °F 21.2 °F 17.6 °F 69% 29.78 in 10.0 mi NNW 4.6 mph - N/A   Mostly Cloudy
6:36 AM 28.4 °F 24.6 °F 19.4 °F 69% 29.78 in 10.0 mi NNW 3.5 mph - N/A   Mostly Cloudy
6:56 AM 30.2 °F 26.7 °F 17.6 °F 60% 29.79 in 10.0 mi NNW 3.5 mph - N/A   Overcast
7:16 AM 30.2 °F 26.7 °F 17.6 °F 60% 29.78 in 10.0 mi NNW 3.5 mph - N/A   Overcast
7:36 AM 30.2 °F 26.7 °F 17.6 °F 60% 29.79 in 10.0 mi NW 3.5 mph - N/A   Overcast
7:56 AM 30.2 °F 25.4 °F 17.6 °F 60% 29.79 in 10.0 mi NNW 4.6 mph - N/A   Overcast
8:16 AM 30.2 °F 25.4 °F 17.6 °F 60% 29.79 in 10.0 mi North 4.6 mph - N/A   Overcast
8:36 AM 28.4 °F 21.2 °F 17.6 °F 64% 29.79 in 10.0 mi NNW 6.9 mph - N/A   Mostly Cloudy
8:56 AM 28.4 °F 23.3 °F 17.6 °F 64% 29.79 in 10.0 mi NNW 4.6 mph - N/A   Mostly Cloudy
9:16 AM 28.4 °F 23.3 °F 17.6 °F 64% 29.79 in 10.0 mi North 4.6 mph - N/A   Scattered Clouds
9:36 AM 28.4 °F 24.6 °F 17.6 °F 64% 29.79 in 10.0 mi NNW 3.5 mph - N/A   Scattered Clouds
9:56 AM 26.6 °F 22.6 °F 19.4 °F 74% 29.80 in 10.0 mi NNW 3.5 mph - N/A   Overcast
10:16 AM 28.4 °F - 19.4 °F 69% 29.80 in 10.0 mi Calm Calm - N/A   Mostly Cloudy
10:36 AM 28.4 °F 24.6 °F 19.4 °F 69% 29.79 in 10.0 mi NNW 3.5 mph - N/A   Mostly Cloudy
10:56 AM 28.4 °F - 19.4 °F 69% 29.80 in 10.0 mi Calm Calm - N/A   Partly Cloudy
11:16 AM 30.2 °F - 21.2 °F 69% 29.80 in 10.0 mi Calm Calm - N/A   Scattered Clouds
11:36 AM 30.2 °F - 19.4 °F 64% 29.80 in 10.0 mi Calm Calm - N/A   Mostly Cloudy
11:56 AM 30.2 °F - 21.2 °F 69% 29.80 in 10.0 mi Calm Calm - N/A   Scattered Clouds
12:16 PM 30.2 °F - 21.2 °F 69% 29.79 in 10.0 mi Calm Calm - N/A   Partly Cloudy
12:36 PM 30.2 °F 25.4 °F 21.2 °F 69% 29.79 in 10.0 mi NNW 4.6 mph - N/A   Scattered Clouds
12:56 PM 30.2 °F - 21.2 °F 69% 29.79 in 10.0 mi Calm Calm - N/A   Scattered Clouds
1:16 PM 33.8 °F 30.8 °F 21.2 °F 60% 29.78 in 10.0 mi WSW 3.5 mph - N/A   Mostly Cloudy
1:36 PM 32.0 °F - 23.0 °F 69% 29.78 in 10.0 mi Calm Calm - N/A   Overcast
1:56 PM 32.0 °F - 21.2 °F 64% 29.78 in 10.0 mi Calm Calm - N/A   Overcast
2:16 PM 33.8 °F - 24.8 °F 70% 29.77 in 10.0 mi Calm Calm - N/A   Overcast
2:36 PM 33.8 °F 30.8 °F 26.6 °F 75% 29.77 in 9.0 mi SE 3.5 mph - N/A   Overcast
2:56 PM 33.8 °F - 26.6 °F 75% 29.77 in 10.0 mi Calm Calm - N/A   Overcast
3:16 PM 33.8 °F - 26.6 °F 75% 29.76 in 10.0 mi Calm Calm - N/A   Overcast
3:36 PM 33.8 °F 28.6 °F 26.6 °F 75% 29.76 in 10.0 mi North 5.8 mph - N/A   Overcast
3:56 PM 33.8 °F 28.6 °F 23.0 °F 65% 29.75 in 10.0 mi North 5.8 mph - N/A   Mostly Cloudy
4:16 PM 33.8 °F 28.6 °F 24.8 °F 70% 29.75 in 10.0 mi NW 5.8 mph - N/A   Partly Cloudy
4:36 PM 35.6 °F 27.1 °F 24.8 °F 65% 29.75 in 10.0 mi East 12.7 mph - N/A   Partly Cloudy
5:16 PM 35.6 °F 27.1 °F 24.8 °F 65% 29.74 in 10.0 mi East 12.7 mph - N/A   Partly Cloudy
5:36 PM 35.6 °F 28.0 °F 23.0 °F 60% 29.74 in 10.0 mi East 10.4 mph - N/A   Partly Cloudy
5:56 PM 35.6 °F 27.5 °F 24.8 °F 65% 29.74 in 10.0 mi ENE 11.5 mph - N/A   Scattered Clouds
6:16 PM 35.6 °F 32.8 °F 24.8 °F 65% 29.74 in 10.0 mi NE 3.5 mph - N/A   Overcast
6:36 PM 35.6 °F 29.9 °F 24.8 °F 65% 29.73 in 10.0 mi ENE 6.9 mph - N/A   Overcast
6:56 PM 35.6 °F 30.7 °F 23.0 °F 60% 29.73 in 10.0 mi NE 5.8 mph - N/A   Overcast
7:16 PM 35.6 °F 25.2 °F 30.2 °F 81% 29.73 in 10.0 mi East 18.4 mph - N/A   Overcast
7:36 PM 35.6 °F 25.9 °F 24.8 °F 65% 29.73 in 10.0 mi ENE 16.1 mph 24.2 mph N/A   Overcast
7:56 PM 35.6 °F 27.1 °F 26.6 °F 70% 29.72 in 10.0 mi East 12.7 mph - N/A   Overcast
8:16 PM 35.6 °F 27.5 °F 24.8 °F 65% 29.72 in 10.0 mi ENE 11.5 mph - N/A   Overcast
8:36 PM 35.6 °F 27.5 °F 24.8 °F 65% 29.72 in 10.0 mi ENE 11.5 mph 16.1 mph N/A   Overcast
8:56 PM 35.6 °F 27.1 °F 24.8 °F 65% 29.72 in 10.0 mi ENE 12.7 mph - N/A   Overcast
9:16 PM 35.6 °F 26.2 °F 26.6 °F 70% 29.71 in 10.0 mi ENE 15.0 mph - N/A   Overcast
9:36 PM 35.6 °F 27.5 °F 24.8 °F 65% 29.71 in 10.0 mi ENE 11.5 mph - N/A   Overcast
9:56 PM 35.6 °F 25.2 °F 26.6 °F 70% 29.70 in 10.0 mi ENE 18.4 mph 23.0 mph N/A   Mostly Cloudy
10:16 PM 35.6 °F 25.5 °F 24.8 °F 65% 29.70 in 10.0 mi ENE 17.3 mph - N/A   Overcast
10:36 PM 33.8 °F 25.3 °F 24.8 °F 70% 29.70 in 10.0 mi ENE 11.5 mph - N/A   Mostly Cloudy
10:56 PM 33.8 °F 24.3 °F 28.4 °F 81% 29.70 in 5.0 mi ENE 13.8 mph - N/A   Overcast
11:16 PM 33.8 °F 23.5 °F 28.4 °F 81% 29.69 in 10.0 mi East 16.1 mph - N/A   Mostly Cloudy
11:36 PM 33.8 °F 24.8 °F 28.4 °F 81% 29.68 in 10.0 mi East 12.7 mph - N/A   Mostly Cloudy
11:56 PM 33.8 °F 23.2 °F 28.4 °F 81% 29.67 in 10.0 mi ENE 17.3 mph - N/A   Mostly Cloudy